This is the latest recevied weather packets stored in our database for station/object DO7DH-5. If no packets are shown the sender has not sent any weather packets the latest 1 day(s).
| Time | Temp. | Humidity | Pressure | Rain* | Wind** | Luminosity | Snow |
|---|---|---|---|---|---|---|---|
| 1778084038 | 12.78° C | 74% | 1005.5 hPa | - | - | - | - |
| 1778084006 | 12.78° C | 74% | 1005.6 hPa | - | - | - | - |
| 1778083943 | 12.78° C | 74% | 1005.6 hPa | - | - | - | - |
| 1778083848 | 13.33° C | 74% | 1005.8 hPa | - | - | - | - |
| 1778083753 | 13.33° C | 73% | 1006 hPa | - | - | - | - |
| 1778083690 | 13.33° C | 73% | 1006.1 hPa | - | - | - | - |
| 1778083438 | 13.33° C | 73% | 1005.9 hPa | - | - | - | - |
| 1778083375 | 13.33° C | 72% | 1005.9 hPa | - | - | - | - |
| 1778083312 | 13.33° C | 72% | 1005.8 hPa | - | - | - | - |
| 1778083280 | 13.33° C | 72% | 1005.9 hPa | - | - | - | - |
| 1778083184 | 13.33° C | 71% | 1005.8 hPa | - | - | - | - |
| 1778083121 | 13.33° C | 71% | 1005.8 hPa | - | - | - | - |
| 1778082994 | 13.89° C | 68% | 1005.9 hPa | - | - | - | - |
| 1778082931 | 13.89° C | 68% | 1006 hPa | - | - | - | - |
| 1778082868 | 13.89° C | 68% | 1006 hPa | - | - | - | - |
| 1778082805 | 13.89° C | 68% | 1006 hPa | - | - | - | - |
| 1778082742 | 13.89° C | 66% | 1005.9 hPa | - | - | - | - |
| 1778082679 | 13.89° C | 64% | 1005.8 hPa | - | - | - | - |
| 1778082616 | 13.89° C | 64% | 1005.8 hPa | - | - | - | - |
| 1778082553 | 15° C | 61% | 1005.7 hPa | - | - | - | - |
| 1778082427 | 16.11° C | 59% | 1005.7 hPa | - | - | - | - |
| 1778082395 | 16.67° C | 58% | 1005.7 hPa | - | - | - | - |
| 1778082332 | 16.67° C | 57% | 1005.5 hPa | - | - | - | - |
| 1778082270 | 17.22° C | 57% | 1005.2 hPa | - | - | - | - |
| 1778082175 | 17.78° C | 58% | 1005.1 hPa | - | - | - | - |
* Rain since midnight (hover to see other rain measurements)
** Current wind speed in m/s (hover to see current wind gust speed)